User: anonymous   Login
Location: Navalespino
(40.5894°N, 4.2660°W)
Time: 18:36:58
(UTC+00:00)
Language:

CENTAUR R/B - Orbit

View from above orbital plane
View from above orbital plane
View from above satellite
View from above satellite

Ground track
Ground track

The orbit data is extracted from the following two-line orbital elements,

1 26906U 01040B   24172.87607283  .00000073  00000-0  10742-3 0  9992
2 26906  63.4301 232.9565 0568634 340.0626  17.8956 13.44516635  5725
Epoch (UTC): 20 June 2024 21:01:32
Eccentricity: 0.0568634
inclination: 63.4301°
perigee height: 668 km
apogee height: 1517 km
right ascension of ascending node: 232.9565°
argument of perigee: 340.0626°
revolutions per day: 13.44516635
mean anomaly at epoch: 17.8956°
orbit number at epoch: 572

The dashed part of the orbit path shows where the satellite is in the earth's shadow,  

DLR